When you browse on this site, cookies collect data to enhance your experience and personalize the content and advertising you see.
Visit our Privacy Policy to learn more. By continuing to use the site, you agree to this use of cookies and data.
  • In Austria
  • List of Countries
  • For 7 days
  • Water Temperature
  • Weather Map
  • News
  • Weather Widgets
  • user-avatar
    Login

    Hourly Weather Varna

    Today, 28 May, Thursday

    Time Temperature Precipitation Wind Pressure Humidity
    00:00 +10°C° 0.1 mm 3 mps 748 mmHg 91%
    01:00 +10°C° 0.1 mm 4 mps 748 mmHg 92%
    02:00 +8°C° 0 mm 4 mps 747 mmHg 93%
    03:00 +8°C° 0.1 mm 4 mps 747 mmHg 94%
    04:00 +8°C° 0.1 mm 4 mps 747 mmHg 94%
    05:00 +8°C° 0.1 mm 4 mps 747 mmHg 95%
    06:00 +9°C° 0.1 mm 5 mps 747 mmHg 91%
    07:00 +10°C° 0.1 mm 5 mps 747 mmHg 87%
    08:00 +13°C° 0.1 mm 6 mps 747 mmHg 83%
    09:00 +14°C° 0.4 mm 5 mps 747 mmHg 78%
    10:00 +15°C° 0.4 mm 5 mps 747 mmHg 73%
    11:00 +17°C° 0.4 mm 5 mps 746 mmHg 68%
    12:00 +18°C° 0.8 mm 4 mps 746 mmHg 68%
    13:00 +18°C° 0.8 mm 3 mps 746 mmHg 68%
    14:00 +18°C° 0.8 mm 3 mps 746 mmHg 68%
    15:00 +18°C° 0.7 mm 3 mps 745 mmHg 69%
    16:00 +18°C° 0.7 mm 2 mps 745 mmHg 69%
    17:00 +18°C° 0.7 mm 2 mps 745 mmHg 70%
    18:00 +16°C° 0.3 mm 2 mps 745 mmHg 75%
    19:00 +15°C° 0.3 mm 1 mps 745 mmHg 79%
    20:00 +13°C° 0.3 mm 1 mps 745 mmHg 83%
    21:00 +13°C° 0 mm 1 mps 745 mmHg 84%
    22:00 +13°C° 0 mm 2 mps 745 mmHg 85%
    23:00 +12°C° 0 mm 2 mps 745 mmHg 86%

    Tomorrow, 29 May, Friday

    Time Temperature Precipitation Wind Pressure Humidity
    00:00 +12°C° 0 mm 2 mps 745 mmHg 86%
    01:00 +10°C° 0 mm 2 mps 745 mmHg 86%
    02:00 +10°C° 0 mm 2 mps 745 mmHg 87%
    03:00 +10°C° 0.1 mm 2 mps 745 mmHg 87%
    04:00 +10°C° 0.1 mm 2 mps 745 mmHg 88%
    05:00 +9°C° 0.1 mm 2 mps 745 mmHg 88%
    06:00 +12°C° 0.1 mm 2 mps 745 mmHg 83%
    07:00 +14°C° 0.1 mm 2 mps 745 mmHg 79%
    08:00 +16°C° 0.1 mm 2 mps 746 mmHg 74%
    09:00 +17°C° 0.5 mm 2 mps 746 mmHg 70%
    10:00 +18°C° 0.5 mm 2 mps 745 mmHg 66%
    11:00 +19°C° 0.5 mm 2 mps 745 mmHg 62%
    12:00 +19°C° 0.7 mm 2 mps 745 mmHg 61%
    13:00 +20°C° 0.7 mm 2 mps 745 mmHg 60%
    14:00 +20°C° 0.7 mm 2 mps 745 mmHg 59%
    15:00 +19°C° 0.7 mm 3 mps 745 mmHg 63%
    16:00 +19°C° 0.7 mm 3 mps 745 mmHg 68%
    17:00 +18°C° 0.7 mm 4 mps 745 mmHg 72%
    18:00 +17°C° 0.1 mm 3 mps 744 mmHg 76%
    19:00 +16°C° 0.1 mm 3 mps 744 mmHg 79%
    20:00 +14°C° 0.1 mm 3 mps 744 mmHg 83%
    21:00 +13°C° 0 mm 3 mps 745 mmHg 83%
    22:00 +14°C° 0 mm 2 mps 745 mmHg 83%
    23:00 +13°C° 0 mm 2 mps 745 mmHg 84%

    Day after tomorrow, 30 May, Saturday

    Time Temperature Precipitation Wind Pressure Humidity
    00:00 +13°C° 0 mm 2 mps 745 mmHg 86%
    01:00 +12°C° 0 mm 2 mps 745 mmHg 88%
    02:00 +12°C° 0 mm 2 mps 744 mmHg 90%
    03:00 +12°C° 0 mm 2 mps 744 mmHg 90%
    04:00 +12°C° 0 mm 2 mps 744 mmHg 90%
    05:00 +12°C° 0 mm 2 mps 744 mmHg 91%
    06:00 +13°C° 0 mm 2 mps 745 mmHg 86%
    07:00 +15°C° 0 mm 2 mps 745 mmHg 81%
    08:00 +17°C° 0 mm 2 mps 745 mmHg 77%
    09:00 +18°C° 0.5 mm 2 mps 745 mmHg 74%
    10:00 +19°C° 0.5 mm 2 mps 745 mmHg 72%
    11:00 +20°C° 0.5 mm 2 mps 745 mmHg 69%
    12:00 +20°C° 0.4 mm 3 mps 745 mmHg 67%
    13:00 +21°C° 0.4 mm 3 mps 745 mmHg 66%
    14:00 +21°C° 0.4 mm 4 mps 745 mmHg 64%
    15:00 +21°C° 0.5 mm 4 mps 744 mmHg 66%
    16:00 +20°C° 0.5 mm 4 mps 744 mmHg 69%
    17:00 +20°C° 0.5 mm 4 mps 744 mmHg 71%
    18:00 +19°C° 0.2 mm 4 mps 744 mmHg 76%
    19:00 +17°C° 0.2 mm 3 mps 744 mmHg 81%
    20:00 +16°C° 0.2 mm 3 mps 744 mmHg 87%
    21:00 +15°C° 0 mm 2 mps 744 mmHg 86%
    22:00 +15°C° 0 mm 2 mps 744 mmHg 86%
    23:00 +15°C° 0 mm 2 mps 744 mmHg 85%

    31 May, Sunday

    Time Temperature Precipitation Wind Pressure Humidity
    00:00 +15°C° 0 mm 2 mps 744 mmHg 85%
    01:00 +15°C° 0 mm 2 mps 744 mmHg 84%
    02:00 +14°C° 0 mm 2 mps 743 mmHg 84%
    03:00 +14°C° 0 mm 2 mps 743 mmHg 84%
    04:00 +14°C° 0 mm 2 mps 743 mmHg 84%
    05:00 +14°C° 0 mm 2 mps 743 mmHg 84%
    06:00 +16°C° 0 mm 2 mps 743 mmHg 80%
    07:00 +17°C° 0 mm 2 mps 743 mmHg 76%
    08:00 +19°C° 0 mm 2 mps 744 mmHg 71%
    09:00 +20°C° 0.5 mm 2 mps 744 mmHg 68%
    10:00 +21°C° 0.5 mm 3 mps 743 mmHg 65%
    11:00 +22°C° 0.5 mm 3 mps 743 mmHg 62%
    12:00 +22°C° 0.9 mm 3 mps 743 mmHg 63%
    13:00 +22°C° 0.9 mm 3 mps 743 mmHg 63%
    14:00 +23°C° 0.9 mm 2 mps 742 mmHg 64%
    15:00 +21°C° 0.7 mm 3 mps 742 mmHg 69%
    16:00 +20°C° 0.7 mm 3 mps 742 mmHg 74%
    17:00 +19°C° 0.7 mm 3 mps 742 mmHg 79%
    18:00 +18°C° 0.1 mm 3 mps 742 mmHg 80%
    19:00 +17°C° 0.1 mm 2 mps 742 mmHg 82%
    20:00 +16°C° 0.1 mm 2 mps 742 mmHg 83%
    21:00 +16°C° 0.1 mm 2 mps 742 mmHg 84%
    22:00 +15°C° 0.1 mm 2 mps 742 mmHg 85%
    23:00 +15°C° 0.1 mm 2 mps 742 mmHg 85%

    1 June, Monday

    Time Temperature Precipitation Wind Pressure Humidity
    00:00 +15°C° 0 mm 2 mps 742 mmHg 86%
    01:00 +15°C° 0 mm 2 mps 742 mmHg 86%
    02:00 +15°C° 0 mm 2 mps 742 mmHg 86%
    03:00 +14°C° 0.2 mm 2 mps 742 mmHg 87%
    04:00 +14°C° 0.2 mm 2 mps 742 mmHg 87%
    05:00 +13°C° 0.2 mm 2 mps 742 mmHg 87%
    06:00 +14°C° 0.1 mm 2 mps 742 mmHg 83%
    07:00 +14°C° 0.1 mm 3 mps 742 mmHg 79%
    08:00 +17°C° 0.1 mm 4 mps 742 mmHg 75%
    09:00 +18°C° 0 mm 3 mps 742 mmHg 71%
    10:00 +19°C° 0 mm 3 mps 742 mmHg 67%
    11:00 +20°C° 0 mm 3 mps 742 mmHg 63%
    12:00 +20°C° 0.2 mm 3 mps 742 mmHg 62%
    13:00 +21°C° 0.2 mm 3 mps 742 mmHg 61%
    14:00 +21°C° 0.2 mm 4 mps 742 mmHg 60%
    15:00 +20°C° 0.4 mm 4 mps 742 mmHg 66%
    16:00 +19°C° 0.4 mm 4 mps 742 mmHg 72%
    17:00 +18°C° 0.4 mm 4 mps 741 mmHg 78%
    18:00 +17°C° 0.2 mm 3 mps 742 mmHg 81%
    19:00 +16°C° 0.2 mm 2 mps 742 mmHg 84%
    20:00 +15°C° 0.2 mm 1 mps 742 mmHg 87%
    21:00 +15°C° 0 mm 1 mps 742 mmHg 87%
    22:00 +14°C° 0 mm 1 mps 742 mmHg 86%
    23:00 +14°C° 0 mm 1 mps 742 mmHg 86%

    2 June, Tuesday

    Time Temperature Precipitation Wind Pressure Humidity
    00:00 +14°C° 0 mm 1 mps 742 mmHg 86%
    01:00 +13°C° 0 mm 0 mps 742 mmHg 85%
    02:00 +13°C° 0 mm 0 mps 742 mmHg 85%
    03:00 +13°C° 0 mm 0 mps 742 mmHg 85%
    04:00 +14°C° 0 mm 1 mps 742 mmHg 85%
    05:00 +14°C° 0 mm 1 mps 742 mmHg 85%
    06:00 +15°C° 0.1 mm 1 mps 742 mmHg 84%
    07:00 +16°C° 0.1 mm 1 mps 743 mmHg 84%
    08:00 +16°C° 0.1 mm 2 mps 743 mmHg 83%
    09:00 +18°C° 0.1 mm 1 mps 743 mmHg 80%
    10:00 +19°C° 0.1 mm 1 mps 743 mmHg 76%
    11:00 +20°C° 0.1 mm 1 mps 743 mmHg 72%
    12:00 +20°C° 0.1 mm 2 mps 743 mmHg 69%
    13:00 +20°C° 0.1 mm 2 mps 743 mmHg 66%
    14:00 +21°C° 0.1 mm 3 mps 743 mmHg 63%
    15:00 +20°C° 0.2 mm 3 mps 742 mmHg 65%
    16:00 +20°C° 0.2 mm 3 mps 742 mmHg 67%
    17:00 +19°C° 0.2 mm 3 mps 742 mmHg 70%
    18:00 +18°C° 0 mm 3 mps 742 mmHg 75%
    19:00 +17°C° 0 mm 2 mps 742 mmHg 80%
    20:00 +15°C° 0 mm 2 mps 742 mmHg 85%
    21:00 +15°C° 0 mm 1 mps 742 mmHg 87%
    22:00 +15°C° 0 mm 1 mps 742 mmHg 88%
    23:00 +14°C° 0 mm 1 mps 742 mmHg 90%
    Show more